DW1774 Weather Reports


time (UTC)temp
F
wind
direction
speed
knots
gust
knots
rain 1hr
in
rain 24hr
in
rain mn
in
humidity
%
barometer
mb
20260901161404 87 23 3.5 10.4 0.00 0.01 0.00 74 1015.4
20260901160904 87 23 7.0 10.4 0.00 0.01 0.00 74 1015.4
20260901160404 87 7 3.5 7.0 0.00 0.01 0.00 75 1015.5
20260901155903 87 17 3.5 7.8 0.00 0.01 0.00 75 1015.5
20260901154905 87 59 2.6 7.0 0.00 0.01 0.00 75 1015.2
20260901154404 87 23 2.6 6.1 0.00 0.01 0.00 75 1015.1
20260901153904 87 10 1.7 7.8 0.00 0.01 0.00 75 1015.1
20260901153404 87 1 4.3 7.8 0.00 0.01 0.00 75 1015.0
20260901152904 87 330 3.5 7.8 0.00 0.01 0.00 75 1014.9
20260901152404 86 354 3.5 8.7 0.00 0.01 0.00 76 1014.8
20260901151903 86 45 2.6 8.7 0.00 0.01 0.00 79 1014.9
20260901151403 86 19 8.7 8.7 0.00 0.01 0.00 80 1014.9
20260901150404 85 350 0.9 7.0 0.00 0.01 0.00 80 1014.8
20260901145904 85 346 4.3 7.0 0.00 0.01 0.00 80 1014.9
20260901145404 84 5 2.6 7.8 0.00 0.01 0.00 82 1015.0
20260901144904 84 1 4.3 7.8 0.00 0.01 0.00 82 1015.0
20260901144404 84 353 7.8 7.8 0.00 0.01 0.00 82 1014.9
20260901143905 84 9 6.1 7.8 0.00 0.01 0.00 82 1014.9
20260901143404 83 8 7.0 7.0 0.00 0.01 0.00 83 1014.9
20260901142904 83 349 1.7 6.1 0.00 0.01 0.00 84 1014.9
20260901142405 83 327 0.0 4.3 0.00 0.01 0.00 85 1015.0
20260901141904 83 327 1.7 4.3 0.00 0.01 0.00 85 1015.0
20260901141404 82 350 0.0 1.7 0.00 0.01 0.00 86 1015.1
20260901140904 82 346 0.0 4.3 0.00 0.01 0.00 86 1015.0
20260901140404 82 346 0.9 4.3 0.00 0.01 0.00 86 1014.9
20260901135904 81 340 0.9 4.3 0.00 0.01 0.00 86 1014.7
20260901135404 81 316 0.9 4.3 0.00 0.01 0.00 87 1014.7
20260901134903 81 313 2.6 4.3 0.00 0.01 0.00 87 1014.8
20260901134404 81 312 1.7 4.3 0.00 0.01 0.00 87 1014.9
20260901133904 81 338 1.7 5.2 0.00 0.01 0.00 88 1014.9
20260901133404 80 336 2.6 5.2 0.00 0.01 0.00 88 1015.0
20260901132405 80 337 2.6 4.3 0.00 0.01 0.00 90 1015.0
20260901131904 80 296 0.9 4.3 0.00 0.01 0.00 90 1014.9
20260901131404 80 269 0.0 0.0 0.00 0.01 0.00 91 1014.9
20260901130904 80 269 0.0 1.7 0.00 0.01 0.00 91 1014.9
20260901130404 79 269 0.0 1.7 0.00 0.01 0.00 91 1014.8
20260901125404 79 269 0.0 0.0 0.00 0.01 0.00 91 1014.7
20260901124404 79 269 0.0 0.0 0.00 0.01 0.00 92 1014.6
20260901123904 79 269 0.0 1.7 0.00 0.01 0.00 92 1014.6
20260901123404 79 269 0.0 1.7 0.00 0.01 0.00 92 1014.5
20260901122905 79 269 0.0 1.7 0.00 0.01 0.00 92 1014.4
20260901122403 79 269 0.0 1.7 0.00 0.01 0.00 92 1014.2
20260901121905 79 269 0.0 1.7 0.00 0.01 0.00 92 1014.1
20260901121404 79 268 0.0 2.6 0.00 0.01 0.00 92 1014.0
20260901120904 79 268 0.0 2.6 0.00 0.01 0.00 92 1014.0
20260901115404 79 167 0.0 0.9 0.00 0.01 0.00 92 1014.0
20260901114904 79 167 0.0 0.9 0.00 0.01 0.00 92 1013.9
20260901114404 79 167 0.0 0.0 0.00 0.01 0.00 92 1013.8
20260901113904 79 167 0.0 0.0 0.00 0.01 0.00 92 1013.8
20260901113405 79 167 0.0 0.0 0.00 0.01 0.00 92 1013.9
20260901112904 79 167 0.0 0.0 0.00 0.01 0.00 92 1014.0
20260901112404 79 167 0.0 0.0 0.00 0.01 0.00 92 1013.9
20260901111904 79 167 0.0 0.0 0.00 0.01 0.00 92 1013.9
20260901111404 79 167 0.0 0.0 0.00 0.01 0.00 92 1013.9
20260901110903 79 167 0.0 0.0 0.00 0.01 0.00 92 1013.8
20260901110404 79 167 0.0 0.0 0.00 0.01 0.00 92 1013.8
20260901105905 79 167 0.0 0.0 0.00 0.01 0.00 92 1013.7
20260901105404 79 167 0.0 0.0 0.00 0.01 0.00 92 1013.6
20260901104904 79 167 0.0 0.0 0.00 0.01 0.00 92 1013.7
20260901104404 79 167 0.0 0.0 0.00 0.01 0.00 92 1013.6
20260901103904 79 167 0.0 0.0 0.00 0.01 0.00 92 1013.7
20260901102904 79 167 0.0 0.0 0.00 0.01 0.00 92 1013.7
20260901101903 79 167 0.0 0.0 0.00 0.01 0.00 91 1013.7
20260901101404 79 167 0.0 0.0 0.00 0.01 0.00 91 1013.7
20260901100405 79 167 0.0 0.0 0.00 0.01 0.00 91 1013.6
20260901095905 79 167 0.0 0.0 0.00 0.01 0.00 91 1013.6
20260901095404 79 167 0.0 0.0 0.00 0.01 0.00 91 1013.7
20260901094404 79 167 0.0 0.0 0.00 0.01 0.00 91 1013.9
20260901093904 79 167 0.0 0.0 0.00 0.01 0.00 91 1013.9
20260901093404 79 167 0.0 0.0 0.00 0.01 0.00 91 1013.9
20260901092904 79 167 0.0 0.0 0.00 0.01 0.00 91 1013.9
20260901091404 79 167 0.0 0.0 0.00 0.01 0.00 91 1014.0
20260901090904 79 167 0.0 0.0 0.00 0.01 0.00 90 1014.0
20260901090404 79 167 0.0 0.0 0.00 0.01 0.00 90 1014.0
20260901085904 79 167 0.0 0.0 0.00 0.01 0.00 90 1014.1
20260901084903 79 167 0.0 0.0 0.00 0.01 0.00 90 1014.2
20260901084404 79 167 0.0 0.0 0.00 0.01 0.00 89 1014.1
20260901083905 79 167 0.0 0.0 0.00 0.01 0.00 89 1014.1
20260901082904 80 167 0.0 0.0 0.00 0.01 0.00 89 1014.0
20260901082405 80 167 0.0 0.0 0.00 0.01 0.00 89 1013.9
20260901081904 80 167 0.0 0.0 0.00 0.01 0.00 89 1014.0
20260901081404 80 167 0.0 0.0 0.00 0.01 0.00 89 1014.0
20260901080405 80 167 0.0 0.0 0.00 0.01 0.00 89 1014.1
20260901075904 80 167 0.0 0.0 0.00 0.01 0.00 89 1014.1
20260901075404 80 167 0.0 0.0 0.00 0.01 0.00 89 1014.1
20260901074905 80 167 0.0 0.0 0.00 0.01 0.00 88 1014.0
20260901074403 80 167 0.0 0.0 0.00 0.01 0.00 88 1014.0
20260901073903 80 167 0.0 0.0 0.00 0.01 0.00 88 1014.1
20260901072903 80 167 0.0 0.0 0.00 0.01 0.00 88 1014.0
20260901072405 80 167 0.0 0.0 0.00 0.01 0.00 88 1013.9
20260901071905 80 167 0.0 0.0 0.00 0.01 0.00 88 1014.1
20260901071404 80 167 0.0 0.0 0.00 0.01 0.00 88 1014.2
20260901070904 80 167 0.0 0.0 0.00 0.01 0.00 88 1014.3
20260901065904 80 167 0.0 0.0 0.00 0.01 0.00 88 1014.5
20260901065403 80 167 0.0 0.0 0.00 0.01 0.00 88 1014.5
20260901064904 80 167 0.0 0.0 0.00 0.01 0.00 88 1014.5
20260901064404 80 167 0.0 0.0 0.00 0.01 0.00 88 1014.4
20260901063903 80 167 0.0 0.0 0.00 0.01 0.00 88 1014.3
20260901063404 80 167 0.0 0.0 0.00 0.01 0.00 88 1014.4
20260901062903 81 167 0.0 0.0 0.00 0.01 0.00 88 1014.3
20260901061904 81 167 0.0 0.0 0.00 0.01 0.00 88 1014.3
20260901061404 81 167 0.0 0.0 0.00 0.01 0.00 87 1014.4
20260901060904 81 167 0.0 0.0 0.00 0.01 0.00 87 1014.5
20260901055904 81 167 0.0 0.0 0.00 0.01 0.00 87 1014.5
20260901055405 81 167 0.0 0.0 0.00 0.01 0.00 87 1014.5
20260901054404 81 167 0.0 0.0 0.00 0.01 0.00 86 1014.5
20260901053404 81 167 0.0 0.0 0.00 0.01 0.00 86 1014.5
20260901052903 81 167 0.0 0.0 0.00 0.01 0.00 86 1014.5
20260901051904 81 167 0.0 0.0 0.00 0.01 0.00 86 1014.4
20260901051404 81 167 0.0 0.0 0.00 0.01 0.00 85 1014.3
20260901050904 82 167 0.0 0.0 0.00 0.01 0.00 85 1014.3
20260901050404 82 167 0.0 0.0 0.00 0.01 0.00 85 1014.4
20260901045903 82 167 0.0 0.0 0.00 0.01 0.01 85 1014.4
20260901045404 82 167 0.0 0.0 0.00 0.01 0.01 85 1014.3
20260901044904 82 167 0.0 0.0 0.00 0.01 0.01 85 1014.2
20260901044404 82 167 0.0 0.0 0.00 0.01 0.01 84 1014.3
20260901043904 82 167 0.0 0.0 0.00 0.01 0.01 84 1014.3
20260901043405 82 167 0.0 0.0 0.00 0.01 0.01 84 1014.4
20260901042904 82 167 0.0 0.0 0.00 0.01 0.01 83 1014.3
20260901042403 82 167 0.0 0.0 0.00 0.01 0.01 83 1014.3
20260901041904 82 167 0.0 0.0 0.00 0.01 0.01 83 1014.4
20260901040905 83 167 0.0 0.0 0.00 0.01 0.01 83 1014.4
20260901040403 83 167 0.0 0.0 0.00 0.01 0.01 83 1014.3
20260901035904 83 167 0.0 0.0 0.00 0.01 0.01 83 1014.3
20260901035404 83 167 0.0 0.0 0.00 0.01 0.01 83 1014.2
20260901034904 83 167 0.0 0.0 0.00 0.01 0.01 83 1014.3
20260901034404 83 167 0.0 0.0 0.00 0.01 0.01 83 1014.3
20260901032904 83 167 0.0 0.0 0.00 0.01 0.01 82 1014.2
20260901032404 83 167 0.0 0.0 0.00 0.01 0.01 82 1014.2
20260901031404 84 167 0.0 0.0 0.00 0.01 0.01 82 1014.2
20260901030904 84 167 0.0 0.0 0.00 0.01 0.01 81 1014.2
20260901030404 84 167 0.0 0.0 0.00 0.01 0.01 81 1014.2
20260901025904 84 167 0.0 0.0 0.00 0.01 0.01 81 1014.0
20260901025405 84 167 0.0 0.0 0.00 0.01 0.01 81 1014.0
20260901024905 84 167 0.0 0.0 0.00 0.01 0.01 80 1013.9
20260901024405 84 167 0.0 0.0 0.00 0.01 0.01 80 1013.7
20260901023905 84 167 0.0 0.0 0.00 0.01 0.01 80 1013.6
20260901022904 84 167 0.0 0.0 0.00 0.01 0.01 79 1013.5
20260901022404 85 167 0.0 0.0 0.00 0.01 0.01 79 1013.4
20260901021904 85 167 0.0 0.0 0.00 0.01 0.01 78 1013.3
20260901021405 85 167 0.0 0.0 0.00 0.01 0.01 78 1013.3
20260901020904 85 167 0.0 0.0 0.00 0.01 0.01 77 1013.2
20260901020404 85 167 0.0 0.0 0.00 0.01 0.01 77 1013.1
20260901015904 85 167 0.0 0.0 0.00 0.01 0.01 77 1013.1
20260901014904 85 167 0.0 0.0 0.00 0.01 0.01 76 1013.0
20260901014404 86 167 0.0 0.0 0.00 0.01 0.01 76 1013.1
20260901013904 86 167 0.0 0.0 0.00 0.01 0.01 76 1012.9
20260901013404 86 167 0.0 0.0 0.00 0.01 0.01 75 1012.9
20260901012904 86 167 0.0 0.0 0.00 0.01 0.01 74 1012.8
20260901011404 87 167 0.0 0.0 0.00 0.01 0.01 73 1012.9
20260901010904 87 167 0.0 0.0 0.00 0.01 0.01 73 1012.9
20260901010404 87 167 0.0 0.0 0.00 0.01 0.01 72 1013.0
20260901005905 88 167 0.0 0.0 0.00 0.01 0.01 72 1013.0
20260901005404 88 167 0.0 0.0 0.00 0.01 0.01 72 1013.0
20260901004905 88 167 0.0 0.0 0.00 0.01 0.01 71 1013.1
20260901004403 88 167 0.0 0.0 0.00 0.01 0.01 71 1013.0
20260901003904 88 167 0.0 0.0 0.00 0.01 0.01 71 1013.0
20260901003404 89 167 0.0 0.0 0.00 0.01 0.01 71 1013.1
20260901002904 89 167 0.0 0.0 0.00 0.01 0.01 70 1013.1
20260901002404 89 167 0.0 0.0 0.00 0.01 0.01 70 1013.1
20260901001903 89 167 0.0 0.0 0.00 0.01 0.01 70 1013.1
20260901001403 89 167 0.0 0.0 0.00 0.01 0.01 69 1013.1
20260901000904 89 167 0.0 0.0 0.00 0.01 0.01 69 1013.1
20260901000405 89 165 0.0 0.0 0.00 0.01 0.01 68 1013.1
20260831235404 90 164 0.0 0.9 0.00 0.01 0.01 69 1013.1
20260831234904 90 164 0.0 0.9 0.00 0.01 0.01 68 1013.1
20260831234404 90 151 0.0 0.9 0.00 0.01 0.01 68 1013.0
20260831233404 91 184 0.0 0.0 0.00 0.01 0.01 68 1013.1
20260831232904 91 184 0.0 0.0 0.00 0.01 0.01 68 1013.2
20260831232404 91 184 0.0 0.0 0.00 0.01 0.01 68 1013.2
20260831231904 91 184 0.0 0.0 0.00 0.01 0.01 68 1013.2
20260831231404 91 184 0.0 0.9 0.00 0.01 0.01 69 1013.1
20260831230904 91 184 0.0 0.9 0.00 0.01 0.01 70 1013.2
20260831230404 91 137 0.0 1.7 0.00 0.01 0.01 69 1013.2
20260831225904 91 137 0.0 1.7 0.00 0.01 0.01 69 1013.3
20260831225403 91 174 0.9 1.7 0.00 0.01 0.01 70 1013.3
20260831224905 91 132 0.0 0.0 0.00 0.01 0.01 71 1013.3
20260831224404 90 132 0.0 0.0 0.00 0.01 0.01 69 1013.3
20260831223405 90 132 0.0 1.7 0.00 0.01 0.01 70 1013.4
20260831222904 90 127 0.0 0.9 0.00 0.01 0.01 72 1013.4
20260831222404 90 127 0.0 0.9 0.00 0.01 0.01 73 1013.4
20260831221903 89 128 0.0 0.9 0.00 0.01 0.01 74 1013.4
20260831221404 89 132 0.0 0.0 0.00 0.01 0.01 74 1013.4
20260831220404 88 181 0.0 0.0 0.00 0.01 0.01 74 1013.6
20260831215403 88 181 0.0 1.7 0.00 0.01 0.01 75 1013.7
20260831214903 88 181 1.7 4.3 0.00 0.01 0.01 74 1013.7
20260831212904 87 183 1.7 4.3 0.00 0.01 0.01 71 1014.0
20260831212404 87 226 0.9 4.3 0.00 0.01 0.01 72 1014.1
20260831211904 87 178 1.7 4.3 0.00 0.01 0.01 70 1014.2
20260831210904 87 184 1.7 2.6 0.00 0.01 0.01 72 1014.3
20260831205904 87 220 0.9 7.0 0.00 0.01 0.01 73 1014.3
20260831204904 88 193 2.6 12.2 0.00 0.01 0.01 73 1014.5
20260831204404 88 174 4.3 12.2 0.00 0.01 0.01 72 1014.5
20260831203904 88 148 1.7 7.0 0.00 0.01 0.01 72 1014.6
20260831203405 89 178 1.7 7.0 0.00 0.01 0.01 71 1014.7
20260831202905 89 185 4.3 7.0 0.00 0.01 0.01 72 1014.8
20260831202403 90 153 1.7 7.0 0.00 0.01 0.01 71 1014.7
20260831201904 90 69 0.9 4.3 0.00 0.01 0.01 70 1014.4
20260831201404 90 49 1.7 6.1 0.00 0.01 0.01 69 1014.6
20260831200904 91 44 1.7 7.0 0.00 0.01 0.01 70 1014.7
20260831195904 91 14 2.6 4.3 0.00 0.01 0.01 69 1014.8
20260831195405 91 356 2.6 4.3 0.00 0.01 0.01 72 1014.9
20260831194404 91 298 0.0 0.0 0.01 0.01 0.01 70 1014.9
20260831193904 91 298 0.0 2.6 0.01 0.01 0.01 70 1015.0
20260831193404 91 298 0.0 2.6 0.01 0.01 0.01 71 1015.0
20260831192904 90 329 1.7 2.6 0.01 0.01 0.01 73 1015.0
20260831192404 90 333 0.9 8.7 0.01 0.01 0.01 74 1015.1
20260831191904 89 312 1.7 8.7 0.01 0.01 0.01 80 1015.2
20260831191404 88 293 8.7 8.7 0.01 0.01 0.01 82 1015.2
20260831190904 87 290 8.7 8.7 0.01 0.01 0.01 83 1015.4
20260831190404 87 0 2.6 5.2 0.01 0.01 0.01 84 1015.4
20260831185905 87 323 0.9 2.6 0.01 0.01 0.01 80 1015.4
20260831184903 88 327 1.7 5.2 0.01 0.01 0.01 76 1015.5
20260831184404 89 294 1.7 8.7 0.00 0.00 0.00 71 1015.6
20260831183904 90 307 4.3 8.7 0.00 0.00 0.00 71 1015.6
20260831183404 90 314 1.7 4.3 0.00 0.00 0.00 71 1015.6
20260831182904 91 288 0.9 2.6 0.00 0.00 0.00 71 1015.7
20260831181904 90 294 0.9 2.6 0.00 0.00 0.00 70 1015.7
20260831180905 90 280 0.9 5.2 0.00 0.00 0.00 72 1015.8
20260831180405 90 264 1.7 7.8 0.00 0.00 0.00 73 1015.9
20260831175904 90 266 1.7 7.8 0.00 0.00 0.00 72 1015.9
20260831175404 89 294 5.2 7.8 0.00 0.00 0.00 73 1015.9
20260831174904 89 213 0.9 5.2 0.00 0.00 0.00 74 1015.9
20260831174403 88 214 1.7 6.1 0.00 0.00 0.00 74 1015.9
20260831173904 88 209 2.6 6.1 0.00 0.00 0.00 73 1016.0
20260831173403 88 205 6.1 6.1 0.00 0.00 0.00 73 1016.1
20260831172404 90 188 6.1 6.1 0.00 0.00 0.00 74 1016.2
20260831171904 90 186 6.1 6.1 0.00 0.00 0.00 74 1016.2
20260831171405 91 174 5.2 6.1 0.00 0.00 0.00 72 1016.1
20260831170903 91 32 0.0 2.6 0.00 0.00 0.00 68 1016.2
20260831170404 92 31 1.7 2.6 0.00 0.00 0.00 68 1016.2
20260831165904 92 358 0.9 1.7 0.00 0.00 0.00 67 1016.2
20260831164903 92 352 1.7 2.6 0.00 0.00 0.00 67 1016.2